Temp
27 25 22 22 22 23 24 24 25 24 20 20 17 15 14 14 15 14 15 15 15 15 14 14 13 13 12 12 12 11 11 10 10 10 10 10 10 10 10 10 10 10 11 11
27 22 21 22 22 24 24 24 23 22 22 20 17 15 14 14 14 14 14 15 14 14 14 13 13 12 12 11 11 10 10 10 9 9 9 9 9 9 9 9 9 9 9 10
23 21 22 23 21 22 23 21 20 19 20 19 18 15 14 14 15 15 15 15 14 14 13 13 12 12 11 11 10 9 9 9 9 8 8 8 8 8 8 9 9 9 9 9
21 21 22 22 20 19 23 20 19 19 19 21 18 19 15 14 14 14 14 14 14 13 13 13 12 11 11 10 9 9 8 8 8 8 8 7 7 8 8 8 8 8 8 8
18 19 19 19 18 18 20 19 20 19 19 20 18 19 15 15 13 13 14 13 13 13 13 13 11 11 10 10 9 9 8 8 7 7 6 5 6 6 7 7 7 7 7 7
19 19 17 18 19 18 19 21 20 19 20 21 18 18 14 12 13 13 13 13 13 13 13 12 11 10 10 9 9 8 8 7 6 3 3 3 3 4 4 5 6 6 6 6
21 18 18 18 20 19 19 20 22 22 21 21 19 18 13 13 14 13 12 12 12 12 12 12 11 10 9 9 8 7 7 6 4 3 2 2 2 2 3 3 4 5 6 6
23 22 16 17 16 15 17 18 18 15 18 17 19 17 13 14 14 13 13 12 12 12 12 12 10 9 9 8 7 5 4 3 2 2 2 2 2 2 2 2 2 3 4 5
20 19 16 15 16 17 17 15 15 15 18 17 20 15 14 14 13 12 12 12 12 12 12 11 10 9 8 7 4 4 4 3 2 2 1 1 1 1 1 1 2 2 2 2
18 19 16 15 16 16 15 16 16 16 13 14 18 16 12 12 12 12 11 11 11 12 11 11 10 8 7 5 5 4 3 2 2 1 1 1 1 1 1 1 1 2 2 2
17 18 17 17 14 13 15 14 15 14 14 12 13 14 13 12 12 11 11 11 11 11 11 11 9 7 6 5 4 2 2 1 1 1 1 1 2 2 2 2 1 1 2 2
15 17 18 14 12 13 13 12 13 11 11 12 10 11 14 12 12 11 11 11 11 11 11 10 8 6 5 4 3 2 1 1 1 1 2 2 3 3 3 3 3 2 2 2
15 18 18 14 12 13 12 11 11 10 10 11 9 12 13 12 11 10 10 11 11 11 10 9 7 5 5 3 2 1 1 1 1 1 2 3 3 3 3 4 4 4 3 2
13 16 16 16 14 11 12 10 9 10 10 9 10 10 10 10 9 10 10 10 11 10 10 8 6 5 4 2 1 1 1 1 2 2 3 3 3 3 3 3 4 4 4 3
14 16 15 12 11 11 11 10 10 8 10 8 9 9 11 9 9 10 10 10 10 9 9 8 5 5 3 1 1 1 1 2 3 3 3 3 3 2 2 2 4 4 4 3
13 15 13 13 11 11 10 10 10 11 10 10 9 10 10 9 10 9 9 10 9 9 8 6 5 4 2 1 1 1 1 2 3 3 3 3 2 2 2 2 2 2 4 4
13 14 14 16 11 11 12 12 10 10 10 9 8 8 9 8 9 9 10 9 8 9 8 5 4 3 1 1 1 1 1 3 3 3 3 3 3 2 2 2 1 2 2 3
13 12 11 13 13 13 10 10 9 9 9 9 8 8 8 8 9 10 10 8 8 8 7 5 3 1 1 1 1 1 2 3 3 3 3 3 3 3 2 1 1 1 1 2
12 12 10 12 15 14 9 9 9 7 8 8 8 8 8 8 9 10 9 8 8 7 6 4 2 1 1 1 1 1 2 3 4 3 4 4 4 3 2 2 1 1 1 1
10 11 11 11 11 14 11 9 8 7 8 8 8 8 7 8 7 8 8 8 7 6 5 3 1 2 1 1 1 1 2 3 4 4 4 4 4 4 3 2 2 2 2 1
12 9 11 14 12 14 10 9 8 9 9 8 8 8 7 6 7 7 7 7 7 6 4 3 2 1 1 1 1 1 2 3 4 5 4 4 4 4 4 4 4 3 3 2
13 11 12 10 10 12 9 8 8 9 8 8 8 7 7 7 7 7 7 7 6 6 3 2 1 1 1 0 0 1 2 3 5 5 4 4 3 4 4 4 4 4 4 3
13 12 12 11 13 10 9 9 9 8 7 7 7 7 7 7 7 7 7 6 6 5 3 2 1 1 0 0 0 1 2 3 5 4 4 4 3 3 3 3 3 3 4 4
11 9 10 10 11 9 9 8 8 8 7 7 6 7 6 6 6 6 6 6 5 4 3 2 1 0 0 -0 0 1 1 4 5 4 4 5 4 4 2 2 2 2 2 3
12 9 11 11 10 8 8 8 7 7 6 6 6 6 6 6 6 6 5 5 5 3 2 1 1 -0 -0 -0 0 1 1 4 5 5 4 4 4 4 4 2 2 2 1 2
10 12 12 14 12 11 9 8 6 6 6 6 6 6 5 5 5 5 5 5 4 3 2 1 0 -0 -1 -0 0 1 2 4 5 4 4 3 4 4 4 4 3 2 1 1
Height
816 829 849 848 846 846 839 834 827 829 844 847 859 874 882 883 880 879 877 872 868 863 860 857 852 847 840 835 828 822 816 811 806 800 794 789 782 779 775 771 768 764 761 758
822 851 854 849 847 839 834 834 838 833 833 844 859 874 883 883 880 880 876 871 867 863 857 852 847 842 837 830 824 818 812 806 800 795 789 783 777 772 768 764 761 758 755 752
845 862 853 848 852 847 836 848 851 851 839 843 852 867 878 879 879 878 874 871 867 863 857 851 845 839 833 826 820 814 808 801 795 789 782 776 770 765 759 755 752 749 747 745
857 858 854 854 858 859 837 847 851 847 842 835 850 847 871 879 878 875 870 869 867 862 857 850 843 837 831 824 817 811 803 796 789 783 777 770 763 755 751 748 744 742 740 738
876 869 868 864 872 865 854 848 840 843 843 840 849 846 871 874 878 874 871 870 866 861 854 847 841 835 828 819 812 804 797 790 784 777 772 765 756 749 743 738 735 732 730 729
870 871 878 878 866 868 858 835 832 841 837 833 852 855 873 885 885 879 873 871 865 859 853 848 841 832 823 815 807 799 792 783 777 772 763 756 749 742 735 730 726 722 720 719
865 878 880 879 865 862 863 845 834 834 834 836 842 848 881 887 881 883 877 871 864 858 851 844 835 826 819 809 802 794 786 778 771 763 754 747 740 733 726 721 716 712 709 707
862 860 888 890 891 893 878 872 875 887 863 858 844 852 877 882 881 883 880 873 866 859 852 842 834 825 816 807 800 792 784 773 764 755 745 737 729 722 716 711 707 703 700 698
877 882 895 898 894 887 882 891 898 891 865 864 837 862 877 873 880 882 878 873 865 858 849 841 832 823 816 807 799 789 778 768 758 747 737 727 719 712 706 700 695 691 689 688
891 883 896 899 894 894 896 897 891 884 897 884 849 857 882 878 878 878 876 871 864 855 848 836 831 822 815 807 795 785 775 764 752 741 731 720 711 702 695 689 684 680 678 677
896 889 893 893 910 911 900 903 899 904 902 906 884 870 887 888 887 882 878 871 864 856 845 838 829 823 815 804 793 782 771 760 748 737 725 714 704 695 686 679 672 669 668 668
904 895 890 910 920 918 918 918 914 916 913 907 921 898 884 889 889 888 879 870 865 856 848 840 830 824 813 802 792 780 768 757 746 734 722 710 699 690 682 673 664 658 656 659
908 892 886 908 920 917 920 928 929 929 930 911 928 887 889 894 892 891 881 872 866 856 849 840 832 824 813 803 792 781 768 756 744 732 720 710 700 690 679 667 655 644 643 650
915 902 901 901 909 924 920 932 935 929 923 923 911 906 904 899 897 888 881 877 865 861 853 843 836 826 816 806 794 781 769 757 744 732 722 712 702 692 680 669 658 646 642 647
912 904 909 920 925 924 925 927 931 940 930 937 920 915 902 906 902 893 886 874 866 859 851 846 840 829 819 807 795 782 770 758 746 736 726 716 706 696 685 674 664 656 651 649
916 908 914 914 925 925 926 927 929 923 925 925 919 911 915 910 901 894 887 875 870 862 855 851 843 832 822 811 799 787 774 762 753 741 732 722 712 702 692 682 672 663 655 649
917 914 912 896 924 923 917 917 925 926 924 929 924 922 918 911 903 897 884 883 875 865 859 854 846 837 827 815 804 792 779 769 759 749 739 729 720 710 700 691 681 671 663 653
919 921 924 910 915 904 925 928 932 933 927 929 929 923 921 915 908 897 892 889 878 870 864 858 850 839 828 819 808 796 784 774 766 756 746 737 728 720 711 701 691 683 675 667
925 922 930 917 899 902 928 930 933 936 928 931 929 926 918 913 905 892 895 890 883 875 869 863 854 844 832 822 812 800 789 779 771 762 754 745 737 729 721 712 705 698 690 682
931 928 924 922 920 902 918 931 936 937 923 931 927 923 918 913 902 895 893 888 882 877 871 864 855 844 835 824 814 804 794 785 776 770 763 755 746 738 731 725 718 712 705 699
921 932 924 909 916 904 923 932 936 921 923 928 929 927 924 920 917 906 898 891 886 878 871 864 856 847 838 828 818 809 800 790 784 777 771 763 754 746 740 733 728 723 717 712
915 921 918 929 929 909 928 933 933 933 933 933 932 930 927 922 914 908 899 892 884 876 870 864 857 848 840 831 822 813 804 796 789 783 776 770 763 756 749 743 737 730 725 721
913 916 913 917 907 923 929 932 934 936 936 934 933 931 927 922 916 908 903 894 887 881 876 869 862 852 842 834 826 818 809 800 793 788 782 777 772 766 759 752 747 740 735 730
920 926 920 924 918 926 930 934 936 937 938 939 936 930 927 923 917 910 901 895 888 884 878 871 863 854 846 837 830 823 814 805 799 793 789 784 779 775 770 763 757 753 747 742
912 924 917 917 921 929 932 933 936 937 939 936 934 931 927 924 917 911 905 898 892 886 882 876 868 859 850 841 833 826 818 810 805 799 795 791 787 783 779 775 771 766 763 758
913 907 910 900 910 919 924 933 937 938 938 935 933 930 927 923 917 912 906 900 895 888 883 878 871 863 854 845 837 830 823 816 810 805 801 798 794 790 786 783 780 778 774 771
Wind_Speed
10 12 12 13 12 6 9 10 12 17 6 11 4 7 6 4 9 14 17 20 23 24 31 33 34 34 35 35 36 36 36 35 35 31 30 29 29 30 31 29 29 29 30 29
7 15 10 4 12 12 7 10 14 6 3 7 8 6 4 4 10 15 19 22 24 24 26 35 37 38 38 39 40 39 39 38 36 32 31 32 31 32 31 31 32 33 31 31
17 9 5 7 12 17 4 13 16 18 17 3 4 8 5 4 10 16 20 23 23 25 27 30 37 40 40 42 40 40 39 38 37 36 33 32 32 32 30 29 30 29 30 30
9 10 10 9 11 16 7 17 16 14 8 5 3 3 6 4 13 20 25 24 24 26 26 33 37 39 42 41 39 41 39 38 36 34 34 35 33 31 31 32 32 32 33 34
5 9 15 12 10 14 8 25 20 8 8 6 5 7 7 7 17 26 26 27 26 27 28 29 39 41 43 40 41 38 38 37 37 36 34 36 34 32 33 32 32 32 33 33
10 6 8 11 9 5 22 23 6 4 5 3 6 7 8 8 18 25 27 27 28 28 29 37 40 41 40 42 39 39 38 37 36 40 39 34 36 34 33 33 32 32 31 32
7 15 5 19 9 1 22 20 5 4 5 6 18 8 8 9 20 22 26 28 29 29 27 27 34 39 40 40 41 40 39 40 43 41 40 38 37 36 34 33 31 29 28 28
7 1 14 15 14 8 13 13 5 6 9 12 10 10 5 7 21 22 24 27 28 28 26 26 37 40 40 42 43 43 41 42 41 40 41 39 37 34 33 32 31 30 27 27
8 4 4 8 9 15 8 7 4 6 7 7 6 7 7 21 23 25 27 28 27 27 26 30 38 40 42 41 44 44 42 42 42 41 39 38 36 34 33 34 33 32 31 29
6 2 5 3 3 12 8 8 2 4 8 8 10 5 10 25 27 28 30 29 27 27 29 28 38 40 41 44 44 44 43 43 43 42 40 37 37 35 33 33 32 31 31 30
6 2 4 2 8 10 7 6 5 2 2 4 7 5 11 21 25 29 30 29 28 29 27 28 36 41 43 44 43 43 44 43 42 42 41 39 38 36 34 31 31 30 28 27
6 4 4 4 5 5 10 7 5 3 6 5 3 5 19 23 23 26 29 27 28 28 29 32 38 43 44 43 44 45 46 43 43 43 41 40 36 32 30 28 28 30 27 23
6 2 3 6 4 4 4 4 2 1 3 3 4 6 20 21 25 26 28 27 27 29 30 30 38 40 41 44 45 45 46 44 43 43 38 36 35 35 35 35 33 28 22 19
4 2 4 4 4 3 2 1 3 5 4 10 10 21 23 22 26 28 28 29 27 27 27 27 30 40 42 44 44 45 45 45 43 39 36 34 36 37 37 35 37 35 3 9
3 1 2 3 2 2 3 3 3 3 8 5 17 19 19 23 26 27 27 27 29 29 29 29 28 38 42 44 46 46 45 44 40 38 35 35 35 37 39 41 35 35 19 5
2 0 3 2 2 5 5 4 6 7 8 12 15 17 19 23 24 25 27 27 28 28 29 29 35 41 40 43 43 44 44 41 41 38 36 36 36 37 38 39 39 35 35 23
2 1 3 2 1 3 5 2 3 9 10 10 12 18 20 23 24 26 23 27 28 27 27 27 34 38 41 41 42 42 42 37 39 38 38 37 37 36 38 39 39 39 37 39
1 2 1 3 2 2 4 2 4 9 11 4 11 18 19 20 22 23 24 27 27 27 26 31 37 40 41 42 42 42 39 36 37 38 38 38 36 36 38 40 40 41 39 37
5 1 1 3 6 2 3 1 4 6 11 1 15 18 21 21 20 15 25 29 26 30 31 35 38 38 39 40 41 39 36 34 35 36 37 35 35 36 37 37 37 37 38 40
1 1 1 1 3 3 3 3 2 4 2 8 15 17 19 21 16 17 27 34 35 34 32 37 38 38 37 41 40 36 35 33 33 34 34 36 34 34 32 32 34 35 36 38
1 1 2 1 3 1 4 3 1 4 6 13 15 15 17 16 15 22 33 32 35 33 36 39 37 36 37 38 38 35 34 32 31 29 30 34 36 32 35 31 29 30 32 33
2 2 1 1 2 3 7 4 2 5 8 12 13 14 17 18 20 21 28 30 33 34 36 38 35 36 38 38 37 34 33 35 28 27 27 30 34 34 33 33 32 31 25 27
2 2 1 4 2 4 3 2 3 3 8 10 12 14 16 18 20 20 20 30 32 34 32 35 34 35 38 39 37 33 35 35 28 26 25 26 29 35 33 32 34 30 29 27
5 4 3 2 6 5 3 1 1 4 7 10 13 15 17 17 18 20 26 28 29 31 31 34 33 34 36 39 37 34 34 32 28 25 24 23 24 26 35 34 33 35 32 28
3 9 6 4 3 3 4 3 2 5 6 9 13 16 16 19 19 24 26 28 30 29 31 33 31 31 35 37 37 35 35 31 27 24 24 23 22 23 22 31 36 32 37 34
7 5 4 2 8 1 7 5 1 3 6 10 13 16 18 19 22 25 26 27 29 29 30 32 33 32 35 36 36 35 34 30 27 24 23 23 21 21 20 19 20 34 35 35
Wind_Direction
46 63 42 33 24 346 307 302 320 345 63 324 81 123 92 37 17 5 1 352 348 345 343 340 339 336 331 329 324 322 318 316 312 309 305 302 300 300 293 287 284 283 281 282
117 53 28 22 13 335 333 347 345 318 308 321 121 128 114 26 21 8 355 349 350 345 341 340 338 335 333 328 328 325 320 317 313 308 302 298 295 290 286 287 282 277 275 274
62 25 4 13 17 354 59 1 338 314 315 143 191 163 197 100 14 358 350 352 350 346 339 338 336 334 334 332 331 324 323 318 315 310 305 298 292 288 285 280 278 276 278 278
59 23 15 20 21 354 308 354 321 322 320 348 198 2 134 13 359 354 351 351 346 344 339 336 337 337 335 331 328 325 320 317 314 315 308 301 294 287 282 280 282 279 275 270
52 31 18 26 1 352 325 316 289 284 286 307 99 298 106 46 355 354 347 347 345 341 340 338 339 336 333 329 326 323 321 321 321 312 313 308 296 291 288 282 277 275 273 270
74 70 35 356 315 338 333 325 82 193 257 238 34 338 81 22 4 350 345 341 341 339 340 339 337 331 328 328 328 327 326 319 321 318 312 303 300 297 290 283 281 277 270 266
129 51 91 11 356 191 2 357 353 346 339 4 358 312 61 19 7 356 343 340 339 339 342 336 333 333 329 332 330 331 328 326 321 316 310 307 300 297 291 285 279 276 271 263
346 264 21 18 32 322 357 12 31 319 341 315 300 340 87 359 5 355 344 339 339 339 337 334 334 330 336 334 335 331 326 321 319 316 312 308 301 294 290 284 281 279 274 270
348 82 118 33 15 13 346 22 338 289 286 296 352 65 160 1 357 349 344 342 338 336 337 334 336 336 337 337 331 327 327 326 324 321 316 310 304 297 291 286 279 272 270 268
20 277 34 35 254 55 47 352 6 325 346 320 338 28 348 350 350 346 344 340 339 337 338 336 337 340 337 333 331 331 331 329 327 325 322 316 310 304 294 287 281 275 267 263
344 272 101 244 32 11 11 25 9 273 14 310 316 34 5 351 348 343 338 338 338 340 334 338 338 340 337 335 336 334 334 332 331 329 325 321 317 312 303 293 285 275 270 262
15 319 14 52 101 44 42 27 3 1 338 308 261 291 19 352 342 342 335 338 341 330 342 340 341 341 337 339 339 338 336 334 333 330 328 325 325 332 332 327 308 283 264 260
0 54 293 175 188 186 41 24 18 225 243 271 310 293 357 336 341 339 335 340 334 343 340 341 346 339 339 341 340 339 337 335 334 334 331 340 345 345 339 334 331 308 256 247
293 3 9 340 354 337 309 338 332 324 286 324 286 326 331 344 337 336 338 339 338 342 339 344 345 338 341 340 340 338 336 338 337 339 345 349 352 353 351 350 2 13 6 236
332 319 5 24 41 289 320 271 261 247 308 295 313 320 337 337 333 334 338 330 345 342 345 347 343 339 340 340 340 340 341 343 349 352 354 356 358 1 3 3 4 16 20 334
2 355 299 231 271 293 263 238 278 294 305 304 311 311 346 327 330 338 333 349 343 341 345 346 341 340 339 339 339 339 342 347 355 357 358 0 3 7 8 8 10 9 15 6
344 336 302 2 327 301 232 236 283 318 327 317 313 327 330 331 335 334 336 347 342 343 347 343 341 337 336 338 340 342 342 351 0 1 3 4 7 9 11 13 13 13 12 23
38 24 349 310 256 270 90 61 336 312 302 308 314 322 328 331 331 314 3 342 342 345 347 344 340 336 336 339 342 343 347 355 2 4 4 6 9 12 14 16 17 16 22 28
15 38 321 299 304 62 156 205 348 342 311 329 326 329 331 335 325 339 348 344 344 346 346 342 337 336 336 340 343 344 349 357 4 4 5 6 11 16 18 19 20 23 28 32
28 55 279 15 314 307 71 130 334 298 221 341 339 333 335 336 341 334 337 341 344 345 352 343 338 339 341 342 344 350 352 356 4 5 6 9 13 19 19 22 23 28 34 37
203 299 274 310 282 224 133 121 168 300 355 336 336 334 336 337 330 320 332 338 343 347 351 344 341 342 342 342 345 351 354 357 1 4 11 13 16 20 23 22 28 33 36 37
264 193 177 108 261 275 145 161 270 353 326 331 334 332 333 327 327 333 335 339 344 350 350 346 343 341 343 346 347 351 355 348 1 9 15 19 20 23 26 28 24 27 32 40
245 242 289 218 350 95 142 346 11 305 316 325 328 329 330 330 334 334 337 342 345 352 346 345 343 341 344 347 348 345 350 350 4 14 16 23 26 28 28 31 30 29 31 34
198 192 237 300 174 218 187 159 288 311 315 326 322 326 333 335 334 338 336 341 346 349 349 345 343 342 342 345 347 347 351 354 8 17 18 21 27 32 34 35 36 36 32 36
33 155 201 244 179 166 192 159 326 319 324 320 326 328 339 339 335 337 339 343 347 348 350 346 344 341 341 344 346 350 355 358 9 16 23 22 24 28 39 46 43 44 45 45
180 191 197 16 116 151 122 147 219 313 338 334 332 337 341 341 338 340 339 344 347 349 349 345 342 341 341 343 346 351 359 359 8 15 17 21 25 27 32 38 50 51 53 52